Location: *
(44.1392°N, 4.8079°E)
Time: 11:57:17
(UTC+00:00)

Lacrosse 5 rocket - Pass Details

Date: 20 October 2021
Orbit: 459 x 633 km, 57.0° (Epoch: 29 November)

Event Time Altitude Azimuth Distance (km) Brightness Sun altitude
Exits shadow 05:14:41 12° 289° (WNW) 1,791 3.3 -9.2°
Maximum altitude 05:17:48 23° 339° (NNW) 1,284 2.9 -8.6°
Drops below altitude 10° 05:21:23 10° 32° (NNE) 1,965 4.5 -8.0°
Sets 05:24:08 0° 47° (NE) 2,895 5.6 -7.5°
